STARLINK-33645, 63412

Orbit data source: Space-Track

STARLINK-33645, 63412 is a payload satellite owned by SpaceX/Seattle (US) in LEO that was launched on Mon, 31 Mar 2025 UTC via an FALCON 9 launch vehicle from the Air Force Eastern Test Range (AFETR). Payload-class satellites include a variety of spacecraft equipped with specific instruments for various scientific and technological missions. These include communications satellites like Starlink; space stations such as the ISS; scientific satellites like the Hubble; Earth observation satellites from companies like Planet Labs, Umbra, and HawkEye 360; GPS; miniature CubeSats for education and research; and military/defense satellites.

Loading next visibility...
Identifier
63412, 2025-065P
Orbit
LEO
Country
Flag of USUS
Related business
Manufacturer
SpaceX/Seattle
Mission
Operational Commercial Communications
Bus & Motor
STARLINK V2MO, Unknown motor
Mass
575 kg wet, ~530 kg dry
Launch date (UTC)
2025-03-31 (1 year ago)
Launch vehicle
FALCON 9
Launch site
Air Force Eastern Test Range (AFETR)
Object type
Payload
Rocket body
Debris
Shape & HBR
Box + 2 Pan, 17.7 m
Radar Cross Section
36.964 m², Large (>1 m²)

Expand to show TLE details & history
Last TLE update: 1 day ago

TLE from 1 day ago
0 STARLINK-33645
1 63412U 25065P   26170.50753874  .00011717  00000-0  43448-3 0  9992
2 63412  42.9993 255.2834 0002930 269.5475  90.5041 15.27588631 68374
Epoch: 2026-06-19T12:10Z
TLE epoch observation values (Epoch: 2026-06-19T12:10:51.347Z)
Latitude
Longitude
164.83394°
Altitude
482.817 km
Speed
7.626 km/s
True Right ascension
17h 01m 08s
True Declination
0° 00' 00"
Sunlit
Object was in full shadow at epoch
Visualization orbit readout
Latitude
Unknown
Longitude
Unknown
Altitude
Unknown
Speed
Unknown
Apparent Right ascension
Unknown
Apparent Declination
Unknown
Sunlit
N/A
Visualization observer readout
Local Sidereal Time
07:17:42
Azimuth
Unknown
Elevation
Unknown
Doppler factor
Unknown
Orbital elements
Apogee altitude
486.979 km
Perigee altitude
482.958 km
Semi-major axis
6,863.106 km
Eccentricity
0.00029
Inclination
42.9993°
RAAN
255.2834°
Arg. of periapsis
269.5475°
True anomaly
90.53767°
Mean anomaly
90.5041°
Eccentric anomaly
90.52089°
Mean motion
3.81735 °/min
Orbital period
94.31 mins
BSTAR
0.00043448
Loading maneuver chart data...
Computing Atmospheric mass density...
Loading historical data...
Loading historical data...
Loading historical data...
Loading historical data...
Loading historical data...
Loading historical data...
Loading historical data...

Documentation

Showing up to 5 results
|